Weather History for Americus, GA

Change the Weather History Date:

Thursday, November 22, 2012

  Actual Average (KABY) Record (KABY)
Temperature  
Mean Temperature 53 °F 57 °F  
Max Temperature 69 °F 69 °F 84 °F (1991)
Min Temperature 37 °F 44 °F 23 °F (1968)
Degree Days  
Heating Degree Days 12 9  
Month to date heating degree days 138  
Since 1 July heating degree days 188  
Cooling Degree Days 0 1  
Month to date cooling degree days 28  
Year to date cooling degree days 2531  
Growing Degree Days 3 (Base 50)    
Moisture  
Dew Point 37 °F    
Average Humidity 64    
Maximum Humidity 100    
Minimum Humidity 24    
Precipitation  
Precipitation 0.00 in 0.12 in 0.20 in (2007)
Month to date precipitation 2.05  
Year to date precipitation 43.68  
Sea Level Pressure  
Sea Level Pressure 30.22 in    
Wind  
Wind Speed 1 mph ()    
Max Wind Speed 8 mph    
Max Gust Speed -    
Visibility 9.8 miles    
Events      
T = Trace of Precipitation, MM = Missing Value Source: Averaged Metar Reports

Daily Weather History Graph

Daily Weather History Graph

Search for Another Location

Airport:

Trip Planner

Search our weather history database for the weather conditions in past years. The results will help you decide how hot, cold, wet, or windy it might be!

Date:

Astronomy

Nov. 22, 2012 Rise Set
Actual Time 7:12 AM EST 5:33 PM EST
Civil Twilight 6:45 AM EST 5:59 PM EST
Nautical Twilight 6:16 AM EST 6:29 PM EST
Astronomical Twilight 5:46 AM EST 6:59 PM EST
Moon 2:02 PM EST (11/22) 1:48 AM EST (11/22)
Length of Visible Light 11h 13m
Length of Day
10h 21m
Waxing Gibbous, 71% of the Moon is Illuminated
Nov 22
Waxing Gibbous
Nov 28
Full
Dec 6
Last Quarter
Dec 13
New
Dec 20
First Quarter

Hourly Weather History & Observations

Time (EST) Temp. Windchill Dew Point Humidity Pressure Visibility Wind Dir Wind Speed Gust Speed Precip Events Conditions
12:15 AM 44.6 °F - 41.0 °F 87% 30.18 in 10.0 mi Calm Calm - N/A   Clear
12:35 AM 44.6 °F - 41.0 °F 87% 30.17 in 10.0 mi Calm Calm - N/A   Clear
12:55 AM 42.8 °F - 41.0 °F 93% 30.18 in 10.0 mi Calm Calm - N/A   Clear
1:15 AM 44.6 °F - 41.0 °F 87% 30.18 in 10.0 mi Calm Calm - N/A   Clear
1:35 AM 42.8 °F - 39.2 °F 87% 30.18 in 10.0 mi Calm Calm - N/A   Clear
1:55 AM 42.8 °F - 41.0 °F 93% 30.18 in 10.0 mi Calm Calm - N/A   Clear
2:15 AM 41.0 °F - 39.2 °F 93% 30.18 in 10.0 mi Calm Calm - N/A   Clear
2:35 AM 41.0 °F - 41.0 °F 100% 30.18 in 10.0 mi Calm Calm - N/A   Clear
2:55 AM 42.8 °F - 41.0 °F 93% 30.18 in 10.0 mi Calm Calm - N/A   Clear
3:15 AM 41.0 °F - 41.0 °F 100% 30.19 in 10.0 mi Calm Calm - N/A   Clear
3:35 AM 41.0 °F - 41.0 °F 100% 30.19 in 10.0 mi Calm Calm - N/A   Clear
3:55 AM 41.0 °F - 39.2 °F 93% 30.19 in 10.0 mi Calm Calm - N/A   Clear
4:15 AM 42.8 °F - 41.0 °F 93% 30.19 in 10.0 mi Calm Calm - N/A   Clear
4:35 AM 41.0 °F - 39.2 °F 93% 30.19 in 10.0 mi Calm Calm - N/A   Clear
4:55 AM 37.4 °F - 37.4 °F 100% 30.20 in 10.0 mi Calm Calm - N/A   Clear
5:15 AM 41.0 °F - 37.4 °F 87% 30.20 in 10.0 mi Calm Calm - N/A   Clear
5:35 AM 39.2 °F 35.9 °F 37.4 °F 93% 30.20 in 10.0 mi NNE 4.6 mph - N/A   Clear
5:55 AM 41.0 °F 39.0 °F 39.2 °F 93% 30.21 in 10.0 mi NNE 3.5 mph - N/A   Clear
6:15 AM 39.2 °F 37.0 °F 37.4 °F 93% 30.21 in 10.0 mi NNE 3.5 mph - N/A   Clear
6:35 AM 41.0 °F - 37.4 °F 87% 30.22 in 10.0 mi Calm Calm - N/A   Clear
6:55 AM 39.2 °F 35.9 °F 37.4 °F 93% 30.22 in 10.0 mi NE 4.6 mph - N/A   Clear
7:15 AM 41.0 °F 38.0 °F 39.2 °F 93% 30.23 in 7.0 mi NE 4.6 mph - N/A   Clear
7:35 AM 39.2 °F 37.0 °F 39.2 °F 100% 30.23 in 7.0 mi NNE 3.5 mph - N/A   Clear
7:55 AM 42.8 °F 40.1 °F 41.0 °F 93% 30.24 in 7.0 mi NE 4.6 mph - N/A   Clear
8:15 AM 44.6 °F 43.1 °F 42.8 °F 93% 30.25 in 7.0 mi NE 3.5 mph - N/A   Clear
8:35 AM 46.4 °F 45.2 °F 44.6 °F 93% 30.26 in 10.0 mi NE 3.5 mph - N/A   Clear
8:55 AM 50.0 °F - 42.8 °F 76% 30.27 in 10.0 mi ENE 3.5 mph - N/A   Clear
9:15 AM 53.6 °F - 41.0 °F 62% 30.27 in 10.0 mi East 6.9 mph - N/A   Clear
9:35 AM 55.4 °F - 37.4 °F 51% 30.27 in 10.0 mi East 6.9 mph - N/A   Unknown
9:55 AM 59.0 °F - 37.4 °F 45% 30.28 in 10.0 mi East 8.1 mph - N/A   Unknown
10:15 AM 59.0 °F - 35.6 °F 42% 30.28 in 10.0 mi ESE 6.9 mph - N/A   Unknown
10:35 AM 60.8 °F - 35.6 °F 39% 30.29 in 10.0 mi SE 8.1 mph - N/A   Clear
10:55 AM 62.6 °F - 35.6 °F 37% 30.28 in 10.0 mi East 3.5 mph - N/A   Clear
11:15 AM 62.6 °F - 33.8 °F 34% 30.28 in 10.0 mi SE 6.9 mph - N/A   Clear
11:35 AM 64.4 °F - 30.2 °F 28% 30.27 in 10.0 mi ESE 6.9 mph - N/A   Clear
11:55 AM 64.4 °F - 32.0 °F 30% 30.26 in 10.0 mi ESE 4.6 mph - N/A   Clear
12:15 PM 64.4 °F - 30.2 °F 28% 30.25 in 10.0 mi Calm Calm - N/A   Clear
12:35 PM 66.2 °F - 30.2 °F 26% 30.25 in 10.0 mi East 4.6 mph - N/A   Clear
12:55 PM 68.0 °F - 30.2 °F 24% 30.24 in 10.0 mi Calm Calm - N/A   Clear
1:15 PM 66.2 °F - 30.2 °F 26% 30.23 in 10.0 mi WSW 3.5 mph - N/A   Clear
1:35 PM 68.0 °F - 32.0 °F 26% 30.22 in 10.0 mi WNW 3.5 mph - N/A   Clear
1:55 PM 68.0 °F - 32.0 °F 26% 30.21 in 10.0 mi Calm Calm - N/A   Clear
2:15 PM 69.8 °F - 32.0 °F 25% 30.20 in 10.0 mi SSW 3.5 mph - N/A   Clear
2:35 PM 68.0 °F - 33.8 °F 28% 30.20 in 10.0 mi ENE 3.5 mph - N/A   Clear
2:55 PM 69.8 °F - 33.8 °F 27% 30.19 in 10.0 mi Calm Calm - N/A   Clear
3:15 PM 69.8 °F - 32.0 °F 25% 30.19 in 10.0 mi West 4.6 mph - N/A   Clear
3:35 PM 69.8 °F - 33.8 °F 27% 30.19 in 10.0 mi North 3.5 mph - N/A   Clear
3:55 PM 69.8 °F - 33.8 °F 27% 30.18 in 10.0 mi Calm Calm - N/A   Clear
4:15 PM 69.8 °F - 33.8 °F 27% 30.18 in 10.0 mi WNW 4.6 mph - N/A   Clear
4:35 PM 68.0 °F - 33.8 °F 28% 30.19 in 10.0 mi NNW 3.5 mph - N/A   Clear
4:55 PM 68.0 °F - 33.8 °F 28% 30.19 in 10.0 mi Calm Calm - N/A   Clear
5:15 PM 66.2 °F - 35.6 °F 32% 30.19 in 10.0 mi Calm Calm - N/A   Clear
5:35 PM 60.8 °F - 35.6 °F 39% 30.20 in 10.0 mi Calm Calm - N/A   Clear
5:55 PM 59.0 °F - 37.4 °F 45% 30.20 in 10.0 mi Calm Calm - N/A   Clear
6:15 PM 55.4 °F - 37.4 °F 51% 30.20 in 10.0 mi Calm Calm - N/A   Clear
6:35 PM 53.6 °F - 37.4 °F 54% 30.21 in 10.0 mi Calm Calm - N/A   Clear
6:55 PM 53.6 °F - 37.4 °F 54% 30.21 in 10.0 mi Calm Calm - N/A   Clear
7:15 PM 50.0 °F - 39.2 °F 66% 30.21 in 10.0 mi Calm Calm - N/A   Clear
7:35 PM 50.0 °F - 37.4 °F 62% 30.21 in 10.0 mi Calm Calm - N/A   Clear
7:55 PM 48.2 °F - 37.4 °F 66% 30.22 in 10.0 mi Calm Calm - N/A   Clear
8:15 PM 48.2 °F - 35.6 °F 62% 30.23 in 10.0 mi Calm Calm - N/A   Clear
8:55 PM 46.4 °F - 35.6 °F 66% 30.23 in 10.0 mi Calm Calm - N/A   Clear
9:15 PM 46.4 °F - 37.4 °F 71% 30.23 in 10.0 mi Calm Calm - N/A   Clear
9:35 PM 44.6 °F - 37.4 °F 76% 30.23 in 10.0 mi Calm Calm - N/A   Clear
9:55 PM 44.6 °F - 37.4 °F 76% 30.23 in 10.0 mi Calm Calm - N/A   Clear
10:15 PM 42.8 °F - 37.4 °F 81% 30.23 in 10.0 mi Calm Calm - N/A   Clear
10:35 PM 42.8 °F - 37.4 °F 81% 30.23 in 10.0 mi Calm Calm - N/A   Clear
10:55 PM 42.8 °F - 35.6 °F 76% 30.23 in 10.0 mi Calm Calm - N/A   Clear
11:15 PM 42.8 °F - 35.6 °F 76% 30.22 in 10.0 mi Calm Calm - N/A   Clear
11:35 PM 42.8 °F - 37.4 °F 81% 30.22 in 10.0 mi Calm Calm - N/A   Clear
11:55 PM 41.0 °F - 35.6 °F 81% 30.22 in 10.0 mi Calm Calm - N/A   Clear